TimeCDT,TemperatureF,Dew PointF,Humidity,Sea Level PressureIn,VisibilityMPH,Wind Direction,Wind SpeedMPH,Gust SpeedMPH,PrecipitationIn,Events,Conditions,WindDirDegrees,DateUTC
12:14 AM,50.9,43.9,77,30.14,7.0,South,10.4,-,N/A,Rain,Light Rain,190,2013-04-22 05:14:00
12:34 AM,50.9,43.9,77,30.14,10.0,South,10.4,16.1,N/A,,Overcast,180,2013-04-22 05:34:00
12:54 AM,50.7,43.7,77,30.14,10.0,South,11.5,-,N/A,,Overcast,190,2013-04-22 05:54:00
1:14 AM,50.9,43.5,76,30.15,10.0,SSW,16.1,-,N/A,,Overcast,200,2013-04-22 06:14:00
1:33 AM,50.9,43.2,75,30.15,10.0,SSW,13.8,23.0,N/A,,Overcast,200,2013-04-22 06:33:00
1:54 AM,50.5,43.3,76,30.14,10.0,South,12.7,-,N/A,,Overcast,190,2013-04-22 06:54:00
2:14 AM,50.4,43.2,76,30.14,10.0,SSW,9.2,-,N/A,,Overcast,200,2013-04-22 07:14:00
2:34 AM,50.2,43.0,76,30.14,10.0,SSW,10.4,-,N/A,,Overcast,200,2013-04-22 07:34:00
2:53 AM,50.0,42.8,76,30.14,10.0,SSW,9.2,-,N/A,,Overcast,200,2013-04-22 07:53:00
3:13 AM,50.0,42.8,76,30.14,10.0,SSW,5.8,-,N/A,,Overcast,210,2013-04-22 08:13:00
3:34 AM,50.0,42.6,76,30.13,10.0,SSW,6.9,-,N/A,,Overcast,210,2013-04-22 08:34:00
3:54 AM,49.5,42.4,77,30.13,10.0,SSW,5.8,-,N/A,,Overcast,210,2013-04-22 08:54:00
4:14 AM,49.5,42.6,77,30.13,10.0,SW,5.8,-,N/A,,Overcast,220,2013-04-22 09:14:00
4:54 AM,46.4,40.1,79,30.13,4.0,NNW,3.5,-,N/A,,Haze,330,2013-04-22 09:54:00
5:14 AM,45.7,39.6,79,30.13,5.0,Calm,Calm,-,N/A,,Haze,0,2013-04-22 10:14:00
5:34 AM,45.5,39.6,80,30.13,4.0,Calm,Calm,-,N/A,,Haze,0,2013-04-22 10:34:00
5:53 AM,45.5,39.6,80,30.13,4.0,NNW,3.5,-,N/A,,Haze,340,2013-04-22 10:53:00
6:14 AM,45.5,39.6,80,30.14,3.0,North,4.6,-,N/A,,Haze,360,2013-04-22 11:14:00
6:33 AM,44.6,39.0,81,30.14,1.0,North,6.9,-,N/A,,Haze,360,2013-04-22 11:33:00
7:13 AM,43.3,37.8,81,30.14,1.0,NNE,6.9,-,N/A,,Haze,20,2013-04-22 12:13:00
7:33 AM,43.0,37.6,81,30.15,1.0,North,8.1,-,N/A,,Haze,10,2013-04-22 12:33:00
7:54 AM,42.8,37.4,81,30.15,0.8,North,6.9,-,N/A,,Haze,10,2013-04-22 12:54:00
8:14 AM,42.4,37.0,81,30.16,0.5,North,5.8,-,0.01,,Haze,350,2013-04-22 13:14:00
8:34 AM,42.3,37.0,82,30.15,0.8,North,5.8,-,0.01,,Haze,360,2013-04-22 13:34:00
8:53 AM,42.1,36.9,82,30.15,1.0,NNE,6.9,-,0.01,,Haze,20,2013-04-22 13:53:00
9:14 AM,42.1,36.9,82,30.14,1.2,NNE,6.9,-,N/A,,Haze,20,2013-04-22 14:14:00
9:34 AM,42.3,37.0,82,30.14,1.0,NNE,5.8,-,N/A,,Haze,20,2013-04-22 14:34:00
9:54 AM,42.8,37.6,82,30.14,1.0,NNE,5.8,-,N/A,,Haze,30,2013-04-22 14:54:00
10:14 AM,43.0,37.8,82,30.14,1.0,NNE,5.8,-,N/A,,Haze,30,2013-04-22 15:14:00
10:34 AM,43.3,38.3,82,30.14,0.8,North,6.9,-,N/A,,Haze,10,2013-04-22 15:34:00
10:53 AM,43.7,38.3,81,30.14,1.5,NE,8.1,-,N/A,,Haze,40,2013-04-22 15:53:00
11:14 AM,43.9,38.7,82,30.14,1.5,NNE,6.9,-,N/A,,Haze,30,2013-04-22 16:14:00
11:34 AM,44.1,39.0,82,30.14,1.8,NNE,5.8,-,N/A,,Haze,30,2013-04-22 16:34:00
11:53 AM,44.6,39.2,81,30.13,1.5,NE,4.6,-,N/A,,Haze,40,2013-04-22 16:53:00
12:14 PM,44.8,39.6,82,30.12,1.5,NE,5.8,-,N/A,,Haze,50,2013-04-22 17:14:00
12:34 PM,45.5,40.1,81,30.11,1.8,NE,4.6,-,N/A,,Haze,50,2013-04-22 17:34:00
12:53 PM,45.5,40.1,81,30.10,1.5,NE,5.8,-,N/A,,Haze,50,2013-04-22 17:53:00
1:14 PM,45.9,40.6,82,30.08,1.5,NE,5.8,-,N/A,Rain,Light Rain,50,2013-04-22 18:14:00
1:34 PM,46.4,41.0,81,30.08,1.8,East,4.6,-,N/A,Rain,Light Rain,80,2013-04-22 18:34:00
1:54 PM,46.8,41.7,83,30.08,1.5,NE,4.6,-,N/A,Rain,Light Rain,40,2013-04-22 18:54:00
2:14 PM,47.3,42.1,82,30.07,1.5,ENE,4.6,-,0.01,,Light Drizzle,60,2013-04-22 19:14:00
2:34 PM,47.7,42.4,82,30.07,1.5,NE,3.5,-,0.01,Rain,Light Rain,50,2013-04-22 19:34:00
2:54 PM,48.2,43.0,82,30.05,1.5,NE,5.8,-,0.02,Rain,Light Rain,50,2013-04-22 19:54:00
3:14 PM,48.7,43.7,83,30.04,1.5,East,6.9,-,0.01,Rain,Light Rain,80,2013-04-22 20:14:00
3:34 PM,49.5,44.4,83,30.02,2.0,ENE,4.6,-,0.01,Rain,Light Rain,60,2013-04-22 20:34:00
3:54 PM,50.0,44.6,82,30.02,2.0,Calm,Calm,-,0.02,Rain,Rain,0,2013-04-22 20:54:00
4:14 PM,50.7,45.7,83,30.01,2.0,ESE,3.5,-,0.02,Rain,Light Rain,110,2013-04-22 21:14:00
4:34 PM,51.3,45.9,82,30.00,5.0,Calm,Calm,-,0.02,Rain,Light Rain,0,2013-04-22 21:34:00
4:54 PM,51.4,45.5,80,30.00,5.0,ESE,3.5,-,0.02,,Haze,120,2013-04-22 21:54:00
5:14 PM,51.8,45.5,79,29.99,5.0,East,4.6,-,N/A,,Light Drizzle,90,2013-04-22 22:14:00
5:34 PM,52.2,45.5,78,29.99,7.0,NE,4.6,-,N/A,,Overcast,50,2013-04-22 22:34:00
5:54 PM,51.8,45.5,79,29.98,3.0,NNE,5.8,-,N/A,,Light Drizzle,30,2013-04-22 22:54:00
6:14 PM,50.7,44.6,80,29.98,1.0,North,8.1,-,N/A,,Light Drizzle,360,2013-04-22 23:14:00
6:34 PM,48.2,42.3,80,29.97,0.2,North,9.2,-,N/A,,Light Drizzle,360,2013-04-22 23:34:00
6:53 PM,46.8,41.2,81,29.97,1.2,NNE,10.4,-,N/A,Rain-Thunderstorm,Rain,20,2013-04-22 23:53:00
7:14 PM,45.1,39.6,81,29.95,1.8,North,11.5,-,0.01,Rain,Light Rain,10,2013-04-23 00:14:00
7:34 PM,44.1,38.7,81,29.95,1.2,North,11.5,-,0.01,Rain,Light Rain,360,2013-04-23 00:34:00
7:54 PM,43.3,37.9,81,29.95,1.2,North,12.7,-,0.02,Rain,Light Rain,360,2013-04-23 00:54:00
8:14 PM,42.8,37.4,81,29.96,1.5,North,13.8,-,N/A,,Haze,350,2013-04-23 01:14:00
8:34 PM,42.1,36.9,82,29.96,3.0,North,13.8,19.6,N/A,Rain,Light Rain,360,2013-04-23 01:34:00
8:54 PM,41.0,35.6,81,29.98,5.0,North,15.0,20.7,0.01,Rain,Light Rain,360,2013-04-23 01:54:00
9:14 PM,40.1,34.7,81,29.99,7.0,North,15.0,23.0,N/A,Rain,Light Rain,350,2013-04-23 02:14:00
9:33 PM,39.6,34.3,82,30.05,2.0,WNW,13.8,-,0.06,Rain,Light Rain,290,2013-04-23 02:33:00
9:54 PM,38.3,32.9,81,30.01,5.0,North,13.8,-,0.09,Rain,Light Rain,350,2013-04-23 02:54:00
10:14 PM,37.8,32.4,81,30.00,5.0,North,13.8,-,0.01,Rain,Light Rain,360,2013-04-23 03:14:00
10:33 PM,37.6,32.2,81,30.00,7.0,North,16.1,-,0.01,Rain,Light Rain,350,2013-04-23 03:33:00
10:54 PM,37.4,32.0,81,30.00,7.0,North,12.7,18.4,0.02,Rain,Light Rain,360,2013-04-23 03:54:00
11:14 PM,37.2,32.0,81,29.99,5.0,North,11.5,-,0.01,Rain,Light Rain,360,2013-04-23 04:14:00
11:34 PM,36.9,32.0,83,29.99,7.0,North,11.5,-,0.02,Rain,Light Rain,350,2013-04-23 04:34:00
11:54 PM,36.9,31.8,82,29.99,10.0,NNW,11.5,-,0.02,Rain,Light Rain,340,2013-04-23 04:54:00